Weather History for LRCS - November, 2013

Change the Weather History Date:

Tuesday, November 12, 2013

  Actual Average Record
Temperature  
Mean Temperature 56 °F -  
Max Temperature 61 °F - - ()
Min Temperature 50 °F - - ()
Degree Days  
Heating Degree Days 10    
Growing Degree Days 6 (Base 50)    
Moisture  
Dew Point 48 °F    
Average Humidity 73    
Maximum Humidity 86    
Minimum Humidity 57    
Precipitation  
Precipitation 0.00 in - - ()
Sea Level Pressure  
Sea Level Pressure 30.26 in    
Wind  
Wind Speed 5 mph ()    
Max Wind Speed 9 mph    
Max Gust Speed -    
Visibility 6.0 miles    
Events      
T = Trace of Precipitation, MM = Missing Value Source: Averaged Metar Reports

Daily Weather History Graph

Daily Weather History Graph

Search for Another Location

Airport or City:

Trip Planner

Search our weather history database for the weather conditions in past years. The results will help you decide how hot, cold, wet, or windy it might be!

Date:

Astronomy

Nov. 12, 2013 Rise Set
Actual Time 7:25 AM EET 5:04 PM EET
Civil Twilight 6:53 AM EET 5:35 PM EET
Nautical Twilight 6:18 AM EET 6:11 PM EET
Astronomical Twilight 5:43 AM EET 6:46 PM EET
Moon 2:21 PM EET (11/12) 1:40 AM EET (11/12)
Length of Visible Light 10h 42m
Length of Day
9h 38m
Waxing Gibbous, 73% of the Moon is Illuminated
Nov 12
Waxing Gibbous
Nov 17
Full
Nov 25
Last Quarter
Dec 3
New
Dec 9
First Quarter

Hourly Weather History & Observations

Time (EET) Temp. Dew Point Humidity Pressure Visibility Wind Dir Wind Speed Gust Speed Precip Events Conditions
12:00 AM 55 °F 49 °F 74% 30.14 in 6 mi SE 8.9 mph - -   Scattered Clouds
1:00 AM 54 °F 49 °F 76% 30.17 in 6 mi SE 6.7 mph - -   Scattered Clouds
2:00 AM 54 °F 49 °F 76% 30.18 in 6 mi SE 8.9 mph - -   Scattered Clouds
3:00 AM 53 °F 48 °F 79% 30.21 in 6 mi SE 4.5 mph - -   Scattered Clouds
4:00 AM 51 °F 48 °F 84% 30.22 in 6 mi SSE 2.2 mph - -   Mostly Cloudy
5:00 AM 51 °F 48 °F 86% 30.23 in 6 mi SE 4.5 mph - -   Mostly Cloudy
6:00 AM 53 °F 49 °F 80% 30.23 in 6 mi SE 4.5 mph - -   Mostly Cloudy
7:00 AM 53 °F 49 °F 80% 30.25 in 6 mi SSE 4.5 mph - -   Mostly Cloudy
8:00 AM 52 °F 49 °F 84% 30.26 in 6 mi Calm Calm - -   Mostly Cloudy
9:00 AM 53 °F 49 °F 84% 30.28 in 6 mi North 2.2 mph - -   Mostly Cloudy
10:00 AM 53 °F 49 °F 80% 30.29 in 6 mi SE 2.2 mph - -   Overcast
11:00 AM 55 °F 50 °F 78% 30.29 in 6 mi SE 2.2 mph - -   Overcast
12:00 PM 61 °F 50 °F 57% 30.28 in 6 mi SE 4.5 mph - -   Overcast
1:00 PM 59 °F 48 °F 58% 30.29 in 6 mi SE 4.5 mph - -   Overcast
2:00 PM 58 °F 48 °F 59% 30.29 in 6 mi SSE 6.7 mph - -   Overcast
3:00 PM 57 °F 48 °F 64% 30.28 in 6 mi SSE 6.7 mph - -   Overcast
4:00 PM 57 °F 48 °F 63% 30.28 in 6 mi SSE 6.7 mph - -   Overcast
5:00 PM 55 °F 47 °F 68% 30.28 in 6 mi SSE 6.7 mph - -   Overcast
6:00 PM 55 °F 47 °F 67% 30.29 in 6 mi SSE 6.7 mph - -   Overcast
7:00 PM 54 °F 47 °F 68% 30.30 in 6 mi SE 6.7 mph - -   Overcast
8:00 PM 54 °F 46 °F 68% 30.30 in 6 mi SE 6.7 mph - -   Overcast
9:00 PM 54 °F 46 °F 68% 30.29 in 6 mi SSE 6.7 mph - -   Overcast
10:00 PM 54 °F 46 °F 68% 30.30 in 6 mi SSE 8.9 mph - -   Overcast
11:00 PM 52 °F 46 °F 74% 30.29 in 6 mi SE 8.9 mph - -   Mostly Cloudy